Hourly Weather New Delhi

Today, 20 September, Sunday

Time Temperature Precipitation Wind Pressure Humidity
00:00 +34°C° 0 mm 2 mps 731 mmHg 46%
01:00 +34°C° 0 mm 2 mps 731 mmHg 50%
02:00 +32°C° 0 mm 2 mps 731 mmHg 53%
03:00 +32°C° 0 mm 1 mps 731 mmHg 55%
04:00 +32°C° 0 mm 1 mps 731 mmHg 56%
05:00 +29°C° 0 mm 0 mps 731 mmHg 61%
06:00 +30°C° 0 mm 0 mps 732 mmHg 59%
07:00 +31°C° 0 mm 0 mps 732 mmHg 56%
08:00 +32°C° 0 mm 0 mps 732 mmHg 54%
09:00 +36°C° 0 mm 1 mps 732 mmHg 44%
10:00 +39°C° 0 mm 2 mps 732 mmHg 33%
11:00 +40°C° 0 mm 3 mps 732 mmHg 23%
12:00 +42°C° 0 mm 3 mps 731 mmHg 22%
13:00 +42°C° 0 mm 4 mps 730 mmHg 20%
14:00 +43°C° 0 mm 4 mps 729 mmHg 19%
15:00 +42°C° 0 mm 4 mps 729 mmHg 21%
16:00 +41°C° 0 mm 4 mps 728 mmHg 24%
17:00 +40°C° 0 mm 4 mps 728 mmHg 26%
18:00 +39°C° 0 mm 3 mps 728 mmHg 27%
19:00 +38°C° 0 mm 2 mps 729 mmHg 27%
20:00 +36°C° 0 mm 1 mps 729 mmHg 27%
21:00 +36°C° 0 mm 1 mps 729 mmHg 29%
22:00 +35°C° 0 mm 1 mps 730 mmHg 30%
23:00 +35°C° 0 mm 1 mps 730 mmHg 31%

Tomorrow, 21 September, Monday

Time Temperature Precipitation Wind Pressure Humidity
00:00 +34°C° 0 mm 1 mps 730 mmHg 32%
01:00 +34°C° 0 mm 1 mps 729 mmHg 32%
02:00 +33°C° 0 mm 1 mps 729 mmHg 33%
03:00 +33°C° 0 mm 1 mps 729 mmHg 34%
04:00 +32°C° 0 mm 1 mps 729 mmHg 36%
05:00 +31°C° 0 mm 1 mps 729 mmHg 37%
06:00 +32°C° 0 mm 1 mps 730 mmHg 36%
07:00 +33°C° 0 mm 1 mps 730 mmHg 35%
08:00 +34°C° 0 mm 1 mps 731 mmHg 34%
09:00 +35°C° 0 mm 1 mps 731 mmHg 31%
10:00 +37°C° 0 mm 1 mps 731 mmHg 28%
11:00 +40°C° 0 mm 1 mps 731 mmHg 25%
12:00 +40°C° 0 mm 1 mps 730 mmHg 23%
13:00 +41°C° 0 mm 1 mps 729 mmHg 21%
14:00 +42°C° 0 mm 1 mps 729 mmHg 19%
15:00 +41°C° 0 mm 1 mps 729 mmHg 21%
16:00 +41°C° 0 mm 2 mps 728 mmHg 22%
17:00 +40°C° 0 mm 2 mps 728 mmHg 24%
18:00 +39°C° 0 mm 2 mps 728 mmHg 25%
19:00 +39°C° 0 mm 2 mps 729 mmHg 26%
20:00 +38°C° 0 mm 2 mps 730 mmHg 28%
21:00 +37°C° 0 mm 3 mps 730 mmHg 32%
22:00 +37°C° 0 mm 3 mps 730 mmHg 37%
23:00 +36°C° 0 mm 3 mps 730 mmHg 41%

Day after tomorrow, 22 September, Tuesday

Time Temperature Precipitation Wind Pressure Humidity
00:00 +36°C° 0 mm 3 mps 730 mmHg 47%
01:00 +35°C° 0 mm 4 mps 730 mmHg 53%
02:00 +34°C° 0 mm 4 mps 730 mmHg 59%
03:00 +34°C° 0.1 mm 4 mps 730 mmHg 62%
04:00 +33°C° 0.1 mm 4 mps 730 mmHg 64%
05:00 +33°C° 0.1 mm 4 mps 730 mmHg 67%
06:00 +33°C° 0 mm 4 mps 731 mmHg 67%
07:00 +33°C° 0 mm 4 mps 731 mmHg 67%
08:00 +33°C° 0 mm 4 mps 732 mmHg 67%
09:00 +34°C° 0 mm 4 mps 732 mmHg 61%
10:00 +36°C° 0 mm 4 mps 732 mmHg 56%
11:00 +38°C° 0 mm 4 mps 731 mmHg 51%
12:00 +38°C° 0 mm 3 mps 731 mmHg 48%
13:00 +39°C° 0 mm 3 mps 730 mmHg 46%
14:00 +39°C° 0 mm 3 mps 730 mmHg 44%
15:00 +39°C° 0 mm 3 mps 729 mmHg 45%
16:00 +39°C° 0 mm 3 mps 729 mmHg 46%
17:00 +38°C° 0 mm 3 mps 729 mmHg 47%
18:00 +37°C° 0 mm 3 mps 729 mmHg 49%
19:00 +37°C° 0 mm 3 mps 729 mmHg 51%
20:00 +36°C° 0 mm 3 mps 730 mmHg 53%
21:00 +35°C° 0 mm 3 mps 730 mmHg 56%
22:00 +35°C° 0 mm 3 mps 730 mmHg 59%
23:00 +34°C° 0 mm 3 mps 731 mmHg 62%

23 September, Wednesday

Time Temperature Precipitation Wind Pressure Humidity
00:00 +34°C° 0 mm 3 mps 730 mmHg 64%
01:00 +34°C° 0 mm 3 mps 730 mmHg 65%
02:00 +33°C° 0 mm 3 mps 730 mmHg 67%
03:00 +33°C° 0 mm 3 mps 730 mmHg 69%
04:00 +31°C° 0 mm 3 mps 730 mmHg 71%
05:00 +31°C° 0 mm 3 mps 730 mmHg 73%
06:00 +31°C° 0 mm 3 mps 731 mmHg 72%
07:00 +33°C° 0 mm 3 mps 731 mmHg 71%
08:00 +33°C° 0 mm 3 mps 732 mmHg 70%
09:00 +34°C° 0 mm 2 mps 732 mmHg 63%
10:00 +36°C° 0 mm 2 mps 732 mmHg 57%
11:00 +37°C° 0 mm 2 mps 732 mmHg 51%
12:00 +38°C° 0 mm 2 mps 731 mmHg 48%
13:00 +38°C° 0 mm 2 mps 730 mmHg 45%
14:00 +39°C° 0 mm 2 mps 730 mmHg 42%
15:00 +39°C° 0 mm 2 mps 729 mmHg 43%
16:00 +39°C° 0 mm 2 mps 729 mmHg 44%
17:00 +38°C° 0 mm 3 mps 729 mmHg 45%
18:00 +37°C° 0 mm 3 mps 730 mmHg 49%
19:00 +36°C° 0 mm 3 mps 730 mmHg 53%
20:00 +35°C° 0 mm 3 mps 731 mmHg 57%
21:00 +35°C° 0 mm 3 mps 731 mmHg 60%
22:00 +34°C° 0 mm 4 mps 731 mmHg 63%
23:00 +33°C° 0 mm 4 mps 732 mmHg 67%

24 September, Thursday

Time Temperature Precipitation Wind Pressure Humidity
00:00 +33°C° 0 mm 4 mps 731 mmHg 69%
01:00 +32°C° 0 mm 4 mps 731 mmHg 72%
02:00 +30°C° 0 mm 4 mps 731 mmHg 75%
03:00 +30°C° 0 mm 3 mps 731 mmHg 76%
04:00 +29°C° 0 mm 3 mps 731 mmHg 78%
05:00 +29°C° 0 mm 2 mps 731 mmHg 79%
06:00 +30°C° 0 mm 2 mps 732 mmHg 77%
07:00 +30°C° 0 mm 2 mps 732 mmHg 74%
08:00 +31°C° 0 mm 2 mps 733 mmHg 71%
09:00 +33°C° 0 mm 1 mps 733 mmHg 63%
10:00 +35°C° 0 mm 1 mps 733 mmHg 55%
11:00 +37°C° 0 mm 1 mps 733 mmHg 48%
12:00 +39°C° 0 mm 1 mps 732 mmHg 42%
13:00 +40°C° 0 mm 2 mps 731 mmHg 37%
14:00 +41°C° 0 mm 2 mps 731 mmHg 31%
15:00 +42°C° 0 mm 3 mps 730 mmHg 32%
16:00 +40°C° 0 mm 3 mps 730 mmHg 32%
17:00 +40°C° 0 mm 3 mps 729 mmHg 32%
18:00 +39°C° 0 mm 3 mps 730 mmHg 35%
19:00 +38°C° 0 mm 2 mps 730 mmHg 38%
20:00 +37°C° 0 mm 2 mps 730 mmHg 41%
21:00 +36°C° 0 mm 2 mps 731 mmHg 43%
22:00 +36°C° 0 mm 2 mps 731 mmHg 45%
23:00 +35°C° 0 mm 2 mps 731 mmHg 47%

25 September, Friday

Time Temperature Precipitation Wind Pressure Humidity
00:00 +35°C° 0 mm 2 mps 731 mmHg 48%
01:00 +34°C° 0 mm 2 mps 731 mmHg 49%
02:00 +34°C° 0 mm 2 mps 730 mmHg 50%
03:00 +34°C° 0 mm 3 mps 730 mmHg 52%
04:00 +33°C° 0 mm 3 mps 730 mmHg 55%
05:00 +33°C° 0 mm 3 mps 730 mmHg 57%
06:00 +33°C° 0 mm 3 mps 730 mmHg 53%
07:00 +34°C° 0 mm 3 mps 731 mmHg 49%
08:00 +35°C° 0 mm 2 mps 731 mmHg 45%
09:00 +37°C° 0 mm 3 mps 731 mmHg 38%
10:00 +39°C° 0 mm 3 mps 731 mmHg 30%
11:00 +42°C° 0 mm 3 mps 731 mmHg 23%
12:00 +43°C° 0 mm 3 mps 730 mmHg 20%
13:00 +44°C° 0 mm 4 mps 730 mmHg 18%
14:00 +45°C° 0 mm 4 mps 729 mmHg 15%
15:00 +44°C° 0 mm 4 mps 729 mmHg 18%
16:00 +43°C° 0 mm 4 mps 728 mmHg 20%
17:00 +42°C° 0 mm 4 mps 728 mmHg 23%
18:00 +40°C° 0 mm 3 mps 728 mmHg 25%
19:00 +39°C° 0 mm 2 mps 728 mmHg 28%
20:00 +37°C° 0 mm 1 mps 729 mmHg 30%
21:00 +36°C° 0 mm 1 mps 729 mmHg 32%
22:00 +36°C° 0 mm 2 mps 729 mmHg 34%
23:00 +35°C° 0 mm 2 mps 729 mmHg 36%
Show more